Location: Grand Moustoir
(47.8355°N, 3.3120°W)
Time: 21:09:49
(UTC+00:00)

STARLINK-80 - Pass Details

Date: 20 January 2020
Orbit: 491 x 494 km, 53.0° (Epoch: 25 February)

Event Time Altitude Azimuth Distance (km) Brightness Sun altitude
Exits shadow 05:53:17 65° 300° (WNW) 546 3.3 -19.9°
Maximum altitude 05:53:36 69° 336° (NNW) 530 3.3 -19.9°
Drops below altitude 10° 05:57:24 10° 61° (ENE) 1,688 6.8 -19.2°
Sets 05:59:36 0° 64° (ENE) 2,572 7.9 -18.9°
